QPF
0.16 0.16 0.16 0.14 0.11 0.08 0.06 0.04 0.04 0.03 0.02 0.01 0.01 0.00 0.00 0.00 0.00 0.01 0.01 0.00 0.01 0.01 0.02 0.02 0.02 0.03 0.04 0.05 0.06 0.07 0.07 0.07 0.09 0.10 0.12 0.13 0.13 0.11
0.19 0.21 0.21 0.20 0.18 0.15 0.12 0.09 0.07 0.05 0.04 0.03 0.02 0.01 0.01 0.00 0.00 0.00 0.00 0.00 0.01 0.01 0.02 0.03 0.03 0.04 0.04 0.04 0.06 0.07 0.07 0.09 0.10 0.10 0.09 0.09 0.10 0.10
0.14 0.18 0.22 0.23 0.22 0.19 0.15 0.12 0.09 0.07 0.06 0.04 0.03 0.02 0.02 0.01 0.01 0.00 0.00 0.00 0.00 0.01 0.01 0.02 0.03 0.03 0.03 0.04 0.05 0.07 0.08 0.09 0.08 0.08 0.08 0.08 0.09 0.10
0.13 0.16 0.18 0.22 0.23 0.23 0.19 0.15 0.12 0.09 0.06 0.06 0.05 0.04 0.03 0.02 0.01 0.01 0.00 0.00 0.00 0.01 0.01 0.02 0.02 0.02 0.02 0.03 0.03 0.05 0.06 0.07 0.07 0.07 0.07 0.07 0.07 0.08
0.11 0.14 0.17 0.20 0.21 0.21 0.21 0.19 0.17 0.13 0.08 0.06 0.05 0.05 0.03 0.03 0.02 0.01 0.01 0.01 0.00 0.01 0.01 0.01 0.02 0.02 0.02 0.03 0.03 0.03 0.03 0.04 0.05 0.07 0.07 0.07 0.08 0.07
0.05 0.09 0.12 0.16 0.19 0.21 0.19 0.17 0.17 0.16 0.13 0.09 0.07 0.05 0.04 0.04 0.03 0.02 0.01 0.01 0.00 0.00 0.01 0.01 0.01 0.01 0.02 0.02 0.03 0.03 0.02 0.02 0.02 0.03 0.04 0.05 0.06 0.07
0.02 0.03 0.04 0.08 0.13 0.18 0.22 0.20 0.17 0.14 0.12 0.10 0.09 0.07 0.05 0.04 0.03 0.02 0.02 0.02 0.01 0.00 0.00 0.00 0.00 0.00 0.01 0.01 0.02 0.02 0.02 0.02 0.02 0.02 0.02 0.03 0.04 0.05
0.02 0.02 0.02 0.03 0.05 0.09 0.13 0.18 0.19 0.16 0.13 0.10 0.08 0.07 0.05 0.04 0.04 0.03 0.02 0.01 0.02 0.01 0.01 0.01 0.01 0.00 0.01 0.01 0.01 0.01 0.01 0.01 0.02 0.02 0.03 0.03 0.03 0.03
0.02 0.02 0.01 0.01 0.02 0.04 0.06 0.08 0.10 0.10 0.09 0.09 0.09 0.07 0.06 0.04 0.04 0.04 0.02 0.02 0.01 0.01 0.01 0.01 0.01 0.01 0.01 0.01 0.01 0.01 0.01 0.02 0.02 0.02 0.02 0.03 0.02 0.02
0.03 0.02 0.02 0.02 0.02 0.02 0.03 0.05 0.05 0.05 0.04 0.04 0.05 0.07 0.09 0.08 0.06 0.05 0.04 0.04 0.03 0.03 0.02 0.01 0.01 0.01 0.01 0.01 0.01 0.01 0.01 0.01 0.01 0.02 0.02 0.02 0.02 0.02
0.03 0.02 0.02 0.02 0.02 0.01 0.02 0.03 0.04 0.04 0.03 0.03 0.03 0.05 0.06 0.08 0.08 0.06 0.05 0.05 0.05 0.04 0.02 0.02 0.02 0.01 0.01 0.01 0.01 0.01 0.00 0.00 0.01 0.01 0.01 0.01 0.01 0.01
0.06 0.04 0.01 0.01 0.01 0.01 0.02 0.03 0.04 0.04 0.04 0.03 0.03 0.03 0.04 0.05 0.06 0.05 0.03 0.04 0.05 0.05 0.03 0.02 0.02 0.01 0.01 0.01 0.01 0.00 0.00 0.00 0.00 0.00 0.00 0.00 0.00 0.00
0.06 0.04 0.03 0.00 0.01 0.01 0.02 0.04 0.05 0.05 0.06 0.06 0.06 0.06 0.06 0.06 0.06 0.06 0.04 0.04 0.04 0.04 0.03 0.02 0.01 0.01 0.01 0.01 0.01 0.01 0.00 0.00 0.00 0.00 0.00 0.00 0.00 0.00
0.07 0.05 0.04 0.01 0.01 0.02 0.03 0.04 0.05 0.06 0.08 0.09 0.09 0.08 0.07 0.08 0.08 0.08 0.08 0.07 0.07 0.06 0.04 0.02 0.01 0.01 0.01 0.01 0.01 0.01 0.01 0.00 0.00 0.00 0.00 0.00 0.00 0.00
0.06 0.04 0.02 0.01 0.01 0.03 0.05 0.07 0.07 0.08 0.11 0.11 0.10 0.09 0.07 0.07 0.08 0.08 0.09 0.09 0.09 0.08 0.05 0.03 0.02 0.01 0.01 0.01 0.00 0.00 0.00 0.00 0.00 0.00 0.00 0.00 0.00 0.00
0.02 0.02 0.00 0.00 0.02 0.05 0.08 0.10 0.11 0.13 0.16 0.15 0.13 0.11 0.08 0.07 0.07 0.07 0.07 0.08 0.07 0.06 0.04 0.03 0.02 0.02 0.02 0.01 0.01 0.01 0.00 0.00 0.00 0.00 0.00 0.00 0.00 0.00
0.04 0.05 0.03 0.02 0.04 0.07 0.12 0.17 0.20 0.23 0.22 0.19 0.17 0.15 0.12 0.09 0.08 0.06 0.05 0.04 0.04 0.04 0.03 0.02 0.02 0.01 0.01 0.01 0.01 0.01 0.01 0.00 0.00 0.00 0.00 0.00 0.00 0.00
0.03 0.08 0.07 0.06 0.09 0.13 0.17 0.23 0.26 0.29 0.27 0.23 0.20 0.18 0.13 0.09 0.07 0.06 0.05 0.04 0.03 0.02 0.02 0.01 0.01 0.01 0.01 0.01 0.01 0.01 0.01 0.00 0.00 0.00 0.00 0.00 0.00 0.00
0.04 0.09 0.09 0.10 0.13 0.17 0.22 0.28 0.29 0.31 0.28 0.25 0.22 0.19 0.14 0.09 0.07 0.06 0.05 0.04 0.03 0.02 0.01 0.01 0.01 0.01 0.01 0.01 0.00 0.00 0.00 0.00 0.00 0.00 0.00 0.00 0.00 0.00
0.06 0.10 0.11 0.13 0.16 0.22 0.28 0.33 0.34 0.33 0.29 0.26 0.23 0.18 0.13 0.08 0.06 0.05 0.03 0.02 0.02 0.01 0.01 0.01 0.01 0.01 0.00 0.00 0.00 0.00 0.00 0.00 0.00 0.00 0.00 0.00 0.00 0.00
0.07 0.09 0.12 0.15 0.19 0.24 0.29 0.36 0.36 0.31 0.26 0.23 0.19 0.15 0.11 0.07 0.06 0.04 0.02 0.02 0.01 0.01 0.01 0.00 0.00 0.00 0.00 0.00 0.00 0.00 0.00 0.00 0.00 0.00 0.00 0.00 0.00 0.00
0.07 0.10 0.13 0.17 0.20 0.25 0.29 0.34 0.32 0.27 0.23 0.17 0.13 0.11 0.07 0.05 0.04 0.03 0.01 0.01 0.01 0.01 0.00 0.00 0.00 0.00 0.00 0.00 0.00 0.00 0.00 0.00 0.00 0.00 0.00 0.00 0.00 0.00
0.09 0.12 0.14 0.16 0.19 0.22 0.23 0.24 0.23 0.20 0.15 0.10 0.08 0.06 0.04 0.03 0.02 0.02 0.01 0.01 0.00 0.00 0.00 0.00 0.00 0.00 0.00 0.00 0.00 0.00 0.00 0.00 0.00 0.00 0.00 0.00 0.00 0.00
MSLP
1010.00 1009.89 1009.80 1009.74 1009.69 1009.66 1009.62 1009.57 1009.51 1009.45 1009.41 1009.40 1009.44 1009.56 1009.75 1010.02 1010.34 1010.69 1011.04 1011.35 1011.60 1011.78 1011.88 1011.91 1011.89 1011.86 1011.85 1011.88 1011.98 1012.16 1012.41 1012.73 1013.09 1013.48 1013.87 1014.24 1014.58 1014.90
1009.98 1009.91 1009.85 1009.79 1009.75 1009.69 1009.62 1009.55 1009.46 1009.37 1009.30 1009.28 1009.32 1009.43 1009.63 1009.90 1010.23 1010.60 1010.96 1011.30 1011.58 1011.78 1011.90 1011.94 1011.93 1011.89 1011.86 1011.87 1011.93 1012.07 1012.28 1012.55 1012.87 1013.22 1013.57 1013.90 1014.19 1014.45
1009.80 1009.81 1009.82 1009.81 1009.80 1009.76 1009.70 1009.62 1009.52 1009.42 1009.34 1009.30 1009.33 1009.43 1009.61 1009.88 1010.22 1010.59 1010.97 1011.33 1011.63 1011.86 1012.01 1012.08 1012.09 1012.07 1012.04 1012.04 1012.09 1012.20 1012.37 1012.61 1012.89 1013.18 1013.48 1013.74 1013.97 1014.15
1009.40 1009.52 1009.62 1009.71 1009.77 1009.79 1009.78 1009.73 1009.65 1009.56 1009.48 1009.43 1009.44 1009.52 1009.69 1009.94 1010.26 1010.63 1011.02 1011.39 1011.72 1011.98 1012.17 1012.28 1012.33 1012.34 1012.33 1012.34 1012.40 1012.50 1012.66 1012.86 1013.10 1013.35 1013.58 1013.78 1013.94 1014.03
1008.78 1009.01 1009.23 1009.43 1009.60 1009.72 1009.78 1009.80 1009.77 1009.71 1009.64 1009.59 1009.58 1009.65 1009.79 1010.01 1010.31 1010.66 1011.04 1011.43 1011.78 1012.08 1012.31 1012.48 1012.58 1012.65 1012.69 1012.74 1012.81 1012.93 1013.08 1013.27 1013.48 1013.68 1013.87 1014.01 1014.09 1014.11
1007.95 1008.29 1008.63 1008.96 1009.25 1009.48 1009.65 1009.76 1009.79 1009.78 1009.74 1009.69 1009.67 1009.71 1009.82 1010.01 1010.28 1010.61 1010.99 1011.38 1011.76 1012.11 1012.41 1012.64 1012.82 1012.96 1013.07 1013.17 1013.29 1013.43 1013.59 1013.78 1013.97 1014.15 1014.30 1014.40 1014.44 1014.40
1007.00 1007.43 1007.88 1008.32 1008.73 1009.09 1009.36 1009.56 1009.67 1009.70 1009.69 1009.65 1009.62 1009.63 1009.71 1009.86 1010.11 1010.43 1010.81 1011.22 1011.65 1012.06 1012.42 1012.75 1013.01 1013.24 1013.43 1013.60 1013.77 1013.95 1014.14 1014.33 1014.53 1014.70 1014.84 1014.92 1014.93 1014.88
1006.05 1006.54 1007.07 1007.60 1008.11 1008.56 1008.92 1009.19 1009.36 1009.44 1009.44 1009.40 1009.36 1009.35 1009.40 1009.54 1009.77 1010.09 1010.48 1010.94 1011.42 1011.91 1012.37 1012.79 1013.15 1013.47 1013.75 1014.00 1014.23 1014.45 1014.67 1014.88 1015.09 1015.26 1015.40 1015.49 1015.51 1015.47
1005.19 1005.71 1006.29 1006.87 1007.44 1007.95 1008.37 1008.68 1008.89 1008.98 1008.99 1008.95 1008.90 1008.87 1008.91 1009.03 1009.26 1009.60 1010.04 1010.55 1011.11 1011.69 1012.25 1012.77 1013.24 1013.66 1014.02 1014.34 1014.62 1014.89 1015.13 1015.37 1015.59 1015.78 1015.94 1016.05 1016.10 1016.10
1004.51 1005.04 1005.62 1006.22 1006.80 1007.32 1007.76 1008.08 1008.28 1008.37 1008.38 1008.32 1008.26 1008.22 1008.25 1008.39 1008.65 1009.03 1009.53 1010.11 1010.76 1011.43 1012.09 1012.72 1013.29 1013.79 1014.22 1014.60 1014.93 1015.22 1015.49 1015.74 1015.97 1016.18 1016.37 1016.51 1016.61 1016.66
1004.04 1004.54 1005.10 1005.67 1006.23 1006.72 1007.13 1007.43 1007.60 1007.67 1007.66 1007.59 1007.51 1007.48 1007.53 1007.70 1008.00 1008.44 1009.00 1009.67 1010.40 1011.17 1011.92 1012.63 1013.27 1013.84 1014.33 1014.74 1015.10 1015.41 1015.69 1015.94 1016.19 1016.42 1016.62 1016.81 1016.95 1017.06
1003.74 1004.20 1004.71 1005.22 1005.72 1006.16 1006.51 1006.76 1006.90 1006.93 1006.90 1006.82 1006.75 1006.74 1006.82 1007.03 1007.39 1007.89 1008.53 1009.27 1010.08 1010.92 1011.73 1012.50 1013.19 1013.80 1014.31 1014.75 1015.11 1015.42 1015.71 1015.97 1016.22 1016.46 1016.69 1016.91 1017.10 1017.27
1003.53 1003.94 1004.38 1004.82 1005.24 1005.61 1005.90 1006.09 1006.19 1006.20 1006.15 1006.09 1006.04 1006.07 1006.20 1006.47 1006.88 1007.45 1008.15 1008.95 1009.80 1010.68 1011.53 1012.32 1013.03 1013.64 1014.16 1014.59 1014.95 1015.26 1015.54 1015.80 1016.06 1016.31 1016.57 1016.81 1017.05 1017.27
1003.31 1003.65 1004.02 1004.38 1004.73 1005.03 1005.26 1005.41 1005.48 1005.49 1005.46 1005.42 1005.42 1005.50 1005.70 1006.03 1006.51 1007.13 1007.87 1008.69 1009.57 1010.45 1011.29 1012.07 1012.76 1013.35 1013.86 1014.27 1014.62 1014.93 1015.21 1015.48 1015.75 1016.03 1016.31 1016.58 1016.85 1017.11
1002.97 1003.25 1003.55 1003.85 1004.13 1004.38 1004.57 1004.71 1004.78 1004.81 1004.82 1004.84 1004.91 1005.07 1005.33 1005.73 1006.26 1006.91 1007.67 1008.49 1009.35 1010.20 1011.00 1011.74 1012.38 1012.94 1013.41 1013.81 1014.16 1014.47 1014.77 1015.06 1015.36 1015.67 1015.98 1016.28 1016.58 1016.88
1002.48 1002.70 1002.93 1003.18 1003.42 1003.65 1003.83 1003.98 1004.09 1004.17 1004.25 1004.35 1004.51 1004.74 1005.09 1005.54 1006.11 1006.78 1007.53 1008.33 1009.14 1009.92 1010.66 1011.33 1011.92 1012.43 1012.87 1013.26 1013.61 1013.95 1014.28 1014.61 1014.96 1015.31 1015.65 1016.00 1016.33 1016.64
1001.82 1001.99 1002.18 1002.40 1002.63 1002.85 1003.06 1003.25 1003.42 1003.58 1003.75 1003.94 1004.19 1004.51 1004.92 1005.42 1006.02 1006.69 1007.42 1008.16 1008.91 1009.62 1010.28 1010.87 1011.40 1011.87 1012.28 1012.67 1013.05 1013.42 1013.80 1014.20 1014.60 1015.00 1015.40 1015.77 1016.13 1016.47
1001.07 1001.19 1001.36 1001.57 1001.81 1002.07 1002.32 1002.57 1002.81 1003.06 1003.31 1003.60 1003.93 1004.33 1004.80 1005.34 1005.95 1006.60 1007.29 1007.98 1008.66 1009.29 1009.87 1010.40 1010.87 1011.31 1011.72 1012.12 1012.53 1012.95 1013.39 1013.85 1014.31 1014.77 1015.22 1015.63 1016.01 1016.35
1000.32 1000.42 1000.59 1000.81 1001.08 1001.37 1001.68 1002.00 1002.31 1002.63 1002.97 1003.33 1003.73 1004.18 1004.69 1005.25 1005.86 1006.50 1007.15 1007.79 1008.40 1008.97 1009.49 1009.96 1010.40 1010.81 1011.22 1011.64 1012.08 1012.55 1013.05 1013.57 1014.09 1014.60 1015.08 1015.51 1015.91 1016.26
999.67 999.78 999.96 1000.21 1000.52 1000.86 1001.22 1001.59 1001.96 1002.33 1002.72 1003.13 1003.57 1004.05 1004.57 1005.14 1005.74 1006.36 1006.98 1007.58 1008.15 1008.67 1009.15 1009.59 1010.00 1010.40 1010.81 1011.24 1011.71 1012.22 1012.76 1013.31 1013.87 1014.41 1014.91 1015.35 1015.75 1016.09
999.21 999.34 999.55 999.85 1000.20 1000.58 1000.98 1001.38 1001.78 1002.18 1002.58 1003.00 1003.45 1003.93 1004.45 1005.01 1005.60 1006.20 1006.80 1007.37 1007.92 1008.41 1008.87 1009.29 1009.68 1010.08 1010.49 1010.92 1011.40 1011.91 1012.46 1013.03 1013.59 1014.13 1014.63 1015.07 1015.45 1015.77
998.96 999.13 999.40 999.74 1000.13 1000.54 1000.96 1001.38 1001.78 1002.16 1002.55 1002.95 1003.37 1003.83 1004.33 1004.87 1005.44 1006.03 1006.61 1007.18 1007.71 1008.20 1008.65 1009.06 1009.45 1009.83 1010.22 1010.64 1011.10 1011.59 1012.11 1012.65 1013.19 1013.70 1014.18 1014.60 1014.95 1015.25
998.92 999.14 999.46 999.85 1000.27 1000.71 1001.13 1001.54 1001.91 1002.26 1002.61 1002.96 1003.33 1003.75 1004.22 1004.73 1005.28 1005.85 1006.44 1007.00 1007.54 1008.03 1008.48 1008.89 1009.26 1009.62 1009.99 1010.36 1010.77 1011.21 1011.68 1012.16 1012.65 1013.12 1013.55 1013.93 1014.26 1014.54
Thickness
5661 5666 5671 5678 5683 5687 5690 5693 5693 5694 5701 5705 5709 5713 5714 5714 5712 5714 5715 5713 5715 5717 5718 5719 5719 5719 5719 5718 5716 5715 5714 5713 5712 5711 5711 5711 5711 5712
5646 5652 5658 5664 5670 5675 5679 5683 5687 5688 5692 5701 5702 5707 5707 5708 5705 5708 5708 5707 5708 5710 5712 5713 5714 5714 5714 5712 5711 5710 5709 5708 5708 5708 5707 5708 5708 5708
5632 5638 5644 5650 5655 5661 5667 5672 5676 5680 5682 5690 5696 5698 5697 5698 5700 5701 5702 5702 5702 5701 5703 5705 5706 5707 5707 5706 5705 5704 5704 5702 5702 5702 5702 5703 5703 5703
5618 5623 5629 5636 5641 5647 5653 5659 5665 5670 5674 5677 5684 5687 5688 5691 5692 5693 5695 5695 5694 5692 5693 5695 5697 5698 5699 5698 5697 5697 5697 5696 5696 5696 5696 5697 5697 5698
5605 5610 5615 5619 5625 5632 5639 5646 5653 5659 5663 5668 5674 5678 5681 5683 5683 5684 5686 5685 5686 5684 5684 5686 5687 5688 5689 5689 5688 5688 5688 5688 5688 5688 5689 5689 5690 5691
5591 5597 5602 5608 5614 5619 5626 5633 5640 5645 5651 5657 5663 5668 5671 5674 5676 5676 5675 5676 5677 5677 5676 5677 5677 5678 5678 5678 5678 5678 5678 5678 5678 5679 5680 5681 5682 5683
5578 5584 5590 5596 5602 5608 5616 5623 5629 5634 5641 5646 5653 5659 5664 5665 5669 5671 5670 5667 5666 5668 5670 5670 5671 5671 5669 5667 5667 5667 5667 5668 5668 5669 5670 5672 5673 5674
5568 5573 5579 5583 5588 5592 5600 5608 5615 5623 5631 5638 5645 5652 5658 5663 5665 5665 5663 5663 5659 5659 5661 5660 5662 5661 5660 5657 5654 5656 5657 5657 5657 5658 5659 5660 5662 5663
5561 5564 5570 5578 5580 5586 5590 5594 5603 5610 5618 5628 5638 5646 5653 5658 5659 5659 5659 5661 5659 5653 5654 5650 5650 5650 5647 5643 5643 5644 5645 5646 5646 5646 5647 5648 5649 5650
5555 5558 5561 5566 5572 5576 5582 5589 5596 5605 5612 5619 5632 5640 5646 5651 5653 5655 5654 5650 5647 5646 5647 5643 5641 5639 5637 5634 5632 5633 5634 5634 5635 5635 5636 5637 5637 5637
5551 5555 5557 5560 5562 5564 5571 5580 5589 5597 5604 5612 5621 5629 5634 5640 5644 5645 5644 5644 5639 5636 5638 5638 5633 5632 5629 5625 5622 5622 5623 5623 5624 5624 5625 5625 5627 5627
5546 5551 5551 5554 5556 5555 5562 5570 5578 5588 5597 5606 5611 5618 5625 5631 5635 5640 5643 5642 5637 5632 5632 5633 5630 5629 5622 5619 5617 5615 5614 5613 5614 5614 5615 5616 5617 5621
5543 5547 5552 5550 5549 5550 5554 5563 5570 5577 5588 5598 5607 5614 5620 5625 5630 5634 5639 5641 5639 5636 5632 5632 5628 5629 5626 5617 5614 5613 5611 5609 5608 5607 5607 5608 5610 5614
5538 5544 5548 5545 5544 5545 5548 5555 5558 5564 5578 5589 5600 5608 5616 5621 5626 5629 5631 5633 5636 5636 5632 5631 5629 5627 5623 5617 5612 5609 5608 5607 5607 5605 5603 5601 5603 5604
5534 5536 5538 5537 5538 5542 5542 5546 5550 5560 5572 5583 5594 5603 5611 5616 5619 5619 5621 5622 5624 5625 5624 5625 5625 5623 5621 5617 5612 5608 5606 5604 5603 5602 5600 5600 5599 5599
5528 5531 5529 5532 5535 5539 5543 5545 5550 5560 5569 5579 5588 5596 5602 5607 5611 5614 5615 5616 5615 5614 5615 5616 5618 5617 5617 5614 5611 5607 5604 5603 5601 5600 5599 5598 5597 5597
5529 5532 5536 5539 5541 5543 5545 5548 5552 5558 5565 5575 5583 5589 5596 5601 5604 5608 5610 5612 5613 5611 5609 5610 5610 5611 5612 5611 5607 5604 5602 5600 5599 5597 5596 5596 5595 5595
5524 5531 5535 5539 5542 5544 5544 5546 5551 5558 5565 5573 5580 5586 5592 5597 5599 5602 5605 5608 5609 5609 5609 5609 5608 5606 5605 5604 5603 5602 5601 5600 5597 5594 5596 5595 5594 5593
5523 5531 5535 5537 5540 5542 5544 5547 5553 5558 5563 5572 5578 5584 5589 5593 5596 5598 5601 5604 5606 5606 5606 5606 5606 5605 5604 5601 5597 5598 5600 5598 5596 5594 5594 5596 5595 5595
5526 5531 5533 5536 5538 5540 5543 5547 5552 5557 5563 5570 5576 5582 5587 5591 5594 5597 5599 5602 5604 5604 5603 5604 5605 5606 5606 5604 5601 5596 5595 5597 5595 5594 5595 5594 5594 5590
5527 5530 5532 5534 5536 5539 5542 5547 5552 5558 5564 5570 5576 5581 5586 5590 5592 5595 5598 5597 5603 5603 5603 5603 5603 5604 5607 5605 5601 5596 5594 5591 5593 5595 5595 5594 5593 5592
5528 5529 5530 5532 5534 5538 5543 5547 5553 5559 5565 5571 5576 5581 5585 5589 5592 5595 5598 5599 5601 5602 5603 5602 5599 5601 5602 5601 5601 5597 5595 5590 5588 5588 5588 5590 5594 5594
5529 5530 5530 5533 5536 5539 5543 5549 5554 5561 5567 5573 5578 5583 5587 5590 5594 5597 5598 5600 5600 5600 5600 5598 5597 5598 5601 5602 5602 5600 5595 5591 5590 5587 5587 5587 5586 5584